Location: Unspecified
(0.0000°N, 0.0000°E)
Time: 05:31:41
(UTC+00:00)

Courier 1B Rocket - Pass Details

Date: 17 April 2021
Orbit: 920 x 1202 km, 28.3° (Epoch: 16 May)

Event Time Altitude Azimuth Distance (km) Brightness Sun altitude
Exits shadow 02:56:32 28° 44° (NE) 2,054 6.9 -44.8°
Drops below altitude 10° 03:01:40 10° 85° (E) 3,065 8.2 -43.6°
Sets 03:04:50 0° 95° (E) 3,993 8.9 -42.8°
